Time,TemperatureF,DewpointF,PressureIn,WindDirection,WindDirectionDegrees,WindSpeedMPH,WindSpeedGustMPH,Humidity,HourlyPrecipIn,Conditions,Clouds,dailyrainin,SoftwareType,DateUTC
2013-03-03 00:00:00,33.0,23.6,29.96,North,355,0.0,0.0,68,0.00,,---,0.00,VWS V14.00,2013-03-03 05:00:00,
2013-03-03 00:05:00,32.8,23.8,29.96,NNE,20,0.0,0.0,69,0.00,,---,0.00,VWS V14.00,2013-03-03 05:05:00,
2013-03-03 00:10:00,32.8,23.8,29.95,NNW,342,0.0,3.0,69,0.00,,---,0.00,VWS V14.00,2013-03-03 05:10:00,
2013-03-03 00:15:00,32.6,23.6,29.95,NNW,338,7.0,7.0,69,0.00,,---,0.00,VWS V14.00,2013-03-03 05:15:00,
2013-03-03 00:20:00,32.6,23.9,29.95,NE,38,0.0,4.0,70,0.00,,---,0.00,VWS V14.00,2013-03-03 05:20:00,
2013-03-03 00:25:00,32.4,23.7,29.95,NNW,342,2.0,3.0,70,0.00,,---,0.00,VWS V14.00,2013-03-03 05:25:00,
2013-03-03 00:30:00,32.3,23.6,29.95,NNE,32,0.0,3.0,70,0.00,,---,0.00,VWS V14.00,2013-03-03 05:30:00,
2013-03-03 00:35:00,32.3,23.3,29.95,NW,320,2.0,2.0,69,0.00,,---,0.00,VWS V14.00,2013-03-03 05:35:00,
2013-03-03 00:40:00,32.2,23.5,29.95,NNW,346,0.0,3.0,70,0.00,,---,0.00,VWS V14.00,2013-03-03 05:40:00,
2013-03-03 00:45:00,32.1,23.1,29.95,ENE,66,0.0,3.0,69,0.00,,---,0.00,VWS V14.00,2013-03-03 05:45:00,
2013-03-03 00:50:00,32.1,23.1,29.95,North,5,0.0,1.0,69,0.00,,---,0.00,VWS V14.00,2013-03-03 05:50:00,
2013-03-03 00:55:00,32.0,23.0,29.95,ENE,69,0.0,1.0,69,0.00,,---,0.00,VWS V14.00,2013-03-03 05:55:00,
2013-03-03 01:00:00,32.0,23.0,29.95,NNW,339,0.0,0.0,69,0.00,,---,0.00,VWS V14.00,2013-03-03 06:00:00,
2013-03-03 01:05:00,31.9,22.9,29.95,NNW,333,0.0,0.0,69,0.00,,---,0.00,VWS V14.00,2013-03-03 06:05:00,
2013-03-03 01:10:00,31.9,22.5,29.95,NNW,344,2.0,8.0,68,0.00,,---,0.00,VWS V14.00,2013-03-03 06:10:00,
2013-03-03 01:15:00,31.9,22.9,29.95,North,360,0.0,3.0,69,0.00,,---,0.00,VWS V14.00,2013-03-03 06:15:00,
2013-03-03 01:20:00,31.9,22.9,29.95,NE,39,1.0,1.0,69,0.00,,---,0.00,VWS V14.00,2013-03-03 06:20:00,
2013-03-03 01:25:00,31.9,22.5,29.96,NNW,328,3.0,8.0,68,0.00,,---,0.00,VWS V14.00,2013-03-03 06:25:00,
2013-03-03 01:30:00,31.8,23.1,29.96,North,351,2.0,2.0,70,0.00,,---,0.00,VWS V14.00,2013-03-03 06:30:00,
2013-03-03 01:35:00,31.6,22.6,29.96,NNW,333,1.0,1.0,69,0.00,,---,0.00,VWS V14.00,2013-03-03 06:35:00,
2013-03-03 01:40:00,31.5,22.5,29.96,North,355,0.0,3.0,69,0.00,,---,0.00,VWS V14.00,2013-03-03 06:40:00,
2013-03-03 01:45:00,31.5,22.9,29.96,North,349,1.0,2.0,70,0.00,,---,0.00,VWS V14.00,2013-03-03 06:45:00,
2013-03-03 01:50:00,31.4,22.8,29.96,NNW,344,2.0,4.0,70,0.00,,---,0.00,VWS V14.00,2013-03-03 06:50:00,
2013-03-03 01:55:00,31.3,22.3,29.96,ENE,69,1.0,5.0,69,0.00,,---,0.00,VWS V14.00,2013-03-03 06:55:00,
2013-03-03 02:00:00,31.2,22.2,29.96,North,355,1.0,3.0,69,0.00,,---,0.00,VWS V14.00,2013-03-03 07:00:00,
2013-03-03 02:05:00,31.2,22.2,29.95,North,360,0.0,0.0,69,0.00,,---,0.00,VWS V14.00,2013-03-03 07:05:00,
2013-03-03 02:10:00,31.2,22.2,29.95,North,355,1.0,6.0,69,0.00,,---,0.00,VWS V14.00,2013-03-03 07:10:00,
2013-03-03 02:15:00,31.1,22.5,29.95,North,10,5.0,5.0,70,0.00,,---,0.00,VWS V14.00,2013-03-03 07:15:00,
2013-03-03 02:20:00,31.0,22.0,29.95,NE,48,2.0,2.0,69,0.00,,---,0.00,VWS V14.00,2013-03-03 07:20:00,
2013-03-03 02:25:00,30.9,21.9,29.95,NNW,347,0.0,0.0,69,0.00,,---,0.00,VWS V14.00,2013-03-03 07:25:00,
2013-03-03 02:30:00,30.8,21.9,29.95,NNE,14,0.0,2.0,69,0.00,,---,0.00,VWS V14.00,2013-03-03 07:30:00,
2013-03-03 02:35:00,30.6,21.6,29.95,North,355,0.0,0.0,69,0.00,,---,0.00,VWS V14.00,2013-03-03 07:35:00,
2013-03-03 02:40:00,30.5,21.6,29.95,North,355,0.0,0.0,69,0.00,,---,0.00,VWS V14.00,2013-03-03 07:40:00,
2013-03-03 02:45:00,30.3,21.7,29.95,North,360,0.0,0.0,70,0.00,,---,0.00,VWS V14.00,2013-03-03 07:45:00,
2013-03-03 02:50:00,30.1,21.2,29.95,North,355,0.0,3.0,69,0.00,,---,0.00,VWS V14.00,2013-03-03 07:50:00,
2013-03-03 02:55:00,30.1,21.9,29.95,NNW,336,0.0,0.0,71,0.00,,---,0.00,VWS V14.00,2013-03-03 07:55:00,
2013-03-03 03:00:00,30.0,21.4,29.95,NNW,337,0.0,0.0,70,0.00,,---,0.00,VWS V14.00,2013-03-03 08:00:00,
2013-03-03 03:05:00,29.9,21.3,29.95,NNW,337,0.0,0.0,70,0.00,,---,0.00,VWS V14.00,2013-03-03 08:05:00,
2013-03-03 03:10:00,29.8,20.9,29.95,NE,39,0.0,0.0,69,0.00,,---,0.00,VWS V14.00,2013-03-03 08:10:00,
2013-03-03 03:15:00,29.7,21.1,29.95,NE,39,1.0,1.0,70,0.00,,---,0.00,VWS V14.00,2013-03-03 08:15:00,
2013-03-03 03:20:00,29.6,21.0,29.95,NE,39,0.0,0.0,70,0.00,,---,0.00,VWS V14.00,2013-03-03 08:20:00,
2013-03-03 03:25:00,29.4,21.2,29.95,NE,39,0.0,0.0,71,0.00,,---,0.00,VWS V14.00,2013-03-03 08:25:00,
2013-03-03 03:30:00,29.4,21.2,29.94,NE,39,0.0,2.0,71,0.00,,---,0.00,VWS V14.00,2013-03-03 08:30:00,
2013-03-03 03:35:00,29.3,21.4,29.94,NE,39,0.0,0.0,72,0.00,,---,0.00,VWS V14.00,2013-03-03 08:35:00,
2013-03-03 03:40:00,29.2,21.0,29.94,NE,39,0.0,2.0,71,0.00,,---,0.00,VWS V14.00,2013-03-03 08:40:00,
2013-03-03 03:45:00,29.2,21.0,29.94,NE,39,0.0,0.0,71,0.00,,---,0.00,VWS V14.00,2013-03-03 08:45:00,
2013-03-03 03:50:00,29.1,20.9,29.94,NE,38,0.0,0.0,71,0.00,,---,0.00,VWS V14.00,2013-03-03 08:50:00,
2013-03-03 03:55:00,29.0,20.8,29.94,NE,38,0.0,0.0,71,0.00,,---,0.00,VWS V14.00,2013-03-03 08:55:00,
2013-03-03 04:00:00,28.8,20.9,29.95,NE,38,0.0,0.0,72,0.00,,---,0.00,VWS V14.00,2013-03-03 09:00:00,
2013-03-03 04:05:00,28.7,20.8,29.95,NE,38,0.0,0.0,72,0.00,,---,0.00,VWS V14.00,2013-03-03 09:05:00,
2013-03-03 04:10:00,28.5,20.6,29.95,NE,38,0.0,1.0,72,0.00,,---,0.00,VWS V14.00,2013-03-03 09:10:00,
2013-03-03 04:15:00,28.3,20.8,29.95,NE,38,0.0,0.0,73,0.00,,---,0.00,VWS V14.00,2013-03-03 09:15:00,
2013-03-03 04:20:00,28.2,21.0,29.95,NE,38,0.0,0.0,74,0.00,,---,0.00,VWS V14.00,2013-03-03 09:20:00,
2013-03-03 04:25:00,28.1,20.9,29.95,NE,38,0.0,0.0,74,0.00,,---,0.00,VWS V14.00,2013-03-03 09:25:00,
2013-03-03 04:30:00,28.0,20.8,29.95,NE,38,0.0,0.0,74,0.00,,---,0.00,VWS V14.00,2013-03-03 09:30:00,
2013-03-03 04:35:00,27.9,21.0,29.95,NE,38,0.0,0.0,75,0.00,,---,0.00,VWS V14.00,2013-03-03 09:35:00,
2013-03-03 04:40:00,27.7,20.8,29.95,NE,38,0.0,0.0,75,0.00,,---,0.00,VWS V14.00,2013-03-03 09:40:00,
2013-03-03 04:45:00,27.5,20.6,29.95,NE,38,0.0,0.0,75,0.00,,---,0.00,VWS V14.00,2013-03-03 09:45:00,
2013-03-03 04:50:00,27.4,20.5,29.95,NE,38,0.0,0.0,75,0.00,,---,0.00,VWS V14.00,2013-03-03 09:50:00,
2013-03-03 04:55:00,27.2,20.3,29.95,NE,38,0.0,0.0,75,0.00,,---,0.00,VWS V14.00,2013-03-03 09:55:00,
2013-03-03 05:00:00,27.1,20.5,29.95,NE,38,0.0,0.0,76,0.00,,---,0.00,VWS V14.00,2013-03-03 10:00:00,
2013-03-03 05:05:00,27.0,20.8,29.95,NE,38,0.0,0.0,77,0.00,,---,0.00,VWS V14.00,2013-03-03 10:05:00,
2013-03-03 05:10:00,27.0,20.8,29.95,NE,38,0.0,0.0,77,0.00,,---,0.00,VWS V14.00,2013-03-03 10:10:00,
2013-03-03 05:15:00,26.9,20.7,29.95,NE,38,0.0,0.0,77,0.00,,---,0.00,VWS V14.00,2013-03-03 10:15:00,
2013-03-03 05:20:00,26.7,20.5,29.96,NE,38,0.0,0.0,77,0.00,,---,0.00,VWS V14.00,2013-03-03 10:20:00,
2013-03-03 05:25:00,26.6,20.4,29.96,NE,38,0.0,0.0,77,0.00,,---,0.00,VWS V14.00,2013-03-03 10:25:00,
2013-03-03 05:30:00,26.6,20.4,29.96,NE,38,0.0,0.0,77,0.00,,---,0.00,VWS V14.00,2013-03-03 10:30:00,
2013-03-03 05:35:00,26.5,20.6,29.96,NE,38,0.0,0.0,78,0.00,,---,0.00,VWS V14.00,2013-03-03 10:35:00,
2013-03-03 05:40:00,26.4,20.5,29.96,North,355,0.0,1.0,78,0.00,,---,0.00,VWS V14.00,2013-03-03 10:40:00,
2013-03-03 05:45:00,26.4,20.8,29.96,North,355,0.0,0.0,79,0.00,,---,0.00,VWS V14.00,2013-03-03 10:45:00,
2013-03-03 05:50:00,26.5,20.9,29.96,NNW,347,0.0,0.0,79,0.00,,---,0.00,VWS V14.00,2013-03-03 10:50:00,
2013-03-03 05:55:00,26.6,21.0,29.96,NNW,347,0.0,0.0,79,0.00,,---,0.00,VWS V14.00,2013-03-03 10:55:00,
2013-03-03 06:00:00,26.6,21.0,29.96,North,10,1.0,3.0,79,0.00,,---,0.00,VWS V14.00,2013-03-03 11:00:00,
2013-03-03 06:05:00,26.8,21.2,29.96,NNW,346,3.0,4.0,79,0.00,,---,0.00,VWS V14.00,2013-03-03 11:05:00,
2013-03-03 06:10:00,27.0,21.1,29.97,NNW,343,0.0,0.0,78,0.00,,---,0.00,VWS V14.00,2013-03-03 11:10:00,
2013-03-03 06:15:00,27.1,20.9,29.97,NNE,31,0.0,0.0,77,0.00,,---,0.00,VWS V14.00,2013-03-03 11:15:00,
2013-03-03 06:20:00,27.3,21.1,29.97,NNE,32,3.0,3.0,77,0.00,,---,0.00,VWS V14.00,2013-03-03 11:20:00,
2013-03-03 06:25:00,27.5,20.9,29.97,NNW,340,0.0,2.0,76,0.00,,---,0.00,VWS V14.00,2013-03-03 11:25:00,
2013-03-03 06:30:00,27.6,20.7,29.97,NNW,333,6.0,6.0,75,0.00,,---,0.00,VWS V14.00,2013-03-03 11:30:00,
2013-03-03 06:35:00,27.8,20.6,29.97,North,355,1.0,2.0,74,0.00,,---,0.00,VWS V14.00,2013-03-03 11:35:00,
2013-03-03 06:40:00,27.8,20.6,29.97,North,355,0.0,0.0,74,0.00,,---,0.00,VWS V14.00,2013-03-03 11:40:00,
2013-03-03 06:45:00,27.8,20.6,29.97,North,355,0.0,2.0,74,0.00,,---,0.00,VWS V14.00,2013-03-03 11:45:00,
2013-03-03 06:50:00,27.8,20.6,29.98,North,355,0.0,0.0,74,0.00,,---,0.00,VWS V14.00,2013-03-03 11:50:00,
2013-03-03 06:55:00,27.7,20.5,29.98,North,355,0.0,0.0,74,0.00,,---,0.00,VWS V14.00,2013-03-03 11:55:00,
2013-03-03 07:00:00,27.6,20.4,29.98,North,355,0.0,0.0,74,0.00,,---,0.00,VWS V14.00,2013-03-03 12:00:00,
2013-03-03 07:05:00,27.5,20.3,29.98,North,355,0.0,0.0,74,0.00,,---,0.00,VWS V14.00,2013-03-03 12:05:00,
2013-03-03 07:10:00,27.4,20.5,29.98,North,355,0.0,0.0,75,0.00,,---,0.00,VWS V14.00,2013-03-03 12:10:00,
2013-03-03 07:15:00,27.3,20.4,29.98,North,355,0.0,0.0,75,0.00,,---,0.00,VWS V14.00,2013-03-03 12:15:00,
2013-03-03 07:20:00,27.3,20.1,29.98,North,355,0.0,0.0,74,0.00,,---,0.00,VWS V14.00,2013-03-03 12:20:00,
2013-03-03 07:25:00,27.5,20.6,29.98,NW,317,2.0,2.0,75,0.00,,---,0.00,VWS V14.00,2013-03-03 12:25:00,
2013-03-03 07:30:00,27.8,20.3,29.98,NW,317,1.0,2.0,73,0.00,,---,0.00,VWS V14.00,2013-03-03 12:30:00,
2013-03-03 07:35:00,28.2,20.7,29.98,NNW,332,0.0,0.0,73,0.00,,---,0.00,VWS V14.00,2013-03-03 12:35:00,
2013-03-03 07:40:00,28.5,20.0,29.99,NNE,15,0.0,0.0,70,0.00,,---,0.00,VWS V14.00,2013-03-03 12:40:00,
2013-03-03 07:45:00,29.0,20.5,29.99,North,355,0.0,0.0,70,0.00,,---,0.00,VWS V14.00,2013-03-03 12:45:00,
2013-03-03 07:50:00,29.4,20.2,29.99,North,355,2.0,4.0,68,0.00,,---,0.00,VWS V14.00,2013-03-03 12:50:00,
2013-03-03 07:55:00,29.7,20.1,29.99,NW,319,0.0,0.0,67,0.00,,---,0.00,VWS V14.00,2013-03-03 12:55:00,
2013-03-03 08:00:00,30.0,20.0,29.99,NW,316,3.0,3.0,66,0.00,,---,0.00,VWS V14.00,2013-03-03 13:00:00,
2013-03-03 08:05:00,30.3,20.0,30.00,NW,320,0.0,3.0,65,0.00,,---,0.00,VWS V14.00,2013-03-03 13:05:00,
2013-03-03 08:10:00,30.5,20.1,30.00,NE,40,0.0,0.0,65,0.00,,---,0.00,VWS V14.00,2013-03-03 13:10:00,
2013-03-03 08:15:00,30.6,20.2,30.00,NNE,15,0.0,0.0,65,0.00,,---,0.00,VWS V14.00,2013-03-03 13:15:00,
2013-03-03 08:20:00,30.8,20.8,30.00,NNE,15,0.0,0.0,66,0.00,,---,0.00,VWS V14.00,2013-03-03 13:20:00,
2013-03-03 08:25:00,31.0,19.9,30.00,NW,315,1.0,4.0,63,0.00,,---,0.00,VWS V14.00,2013-03-03 13:25:00,
2013-03-03 08:30:00,31.2,20.5,30.00,NNW,338,2.0,4.0,64,0.00,,---,0.00,VWS V14.00,2013-03-03 13:30:00,
2013-03-03 08:35:00,31.5,20.0,30.00,NW,317,5.0,7.0,62,0.00,,---,0.00,VWS V14.00,2013-03-03 13:35:00,
2013-03-03 08:40:00,31.8,20.3,30.00,North,355,0.0,1.0,62,0.00,,---,0.00,VWS V14.00,2013-03-03 13:40:00,
2013-03-03 08:45:00,32.2,20.3,30.00,North,355,3.0,8.0,61,0.00,,---,0.00,VWS V14.00,2013-03-03 13:45:00,
2013-03-03 08:50:00,32.5,19.8,30.00,NNW,348,0.0,1.0,59,0.00,,---,0.00,VWS V14.00,2013-03-03 13:50:00,
2013-03-03 08:55:00,32.8,19.7,30.00,North,350,2.0,3.0,58,0.00,,---,0.00,VWS V14.00,2013-03-03 13:55:00,
2013-03-03 09:00:00,32.9,20.5,30.00,NNW,346,5.0,5.0,60,0.00,,---,0.00,VWS V14.00,2013-03-03 14:00:00,
2013-03-03 09:05:00,33.2,19.6,30.01,NNW,333,3.0,3.0,57,0.00,,---,0.00,VWS V14.00,2013-03-03 14:05:00,
2013-03-03 09:10:00,33.5,19.9,30.01,NE,46,0.0,1.0,57,0.00,,---,0.00,VWS V14.00,2013-03-03 14:10:00,
2013-03-03 09:15:00,33.8,19.8,30.01,North,5,3.0,3.0,56,0.00,,---,0.00,VWS V14.00,2013-03-03 14:15:00,
2013-03-03 09:20:00,34.2,21.4,30.01,NNW,331,4.0,4.0,59,0.00,,---,0.00,VWS V14.00,2013-03-03 14:20:00,
2013-03-03 09:25:00,34.6,21.0,30.00,NNW,346,0.0,0.0,57,0.00,,---,0.00,VWS V14.00,2013-03-03 14:25:00,
2013-03-03 09:30:00,35.1,20.6,30.00,North,5,1.0,1.0,55,0.00,,---,0.00,VWS V14.00,2013-03-03 14:30:00,
2013-03-03 09:35:00,35.5,20.5,30.00,North,360,0.0,1.0,54,0.00,,---,0.00,VWS V14.00,2013-03-03 14:35:00,
2013-03-03 09:40:00,35.9,21.8,30.00,NNE,30,3.0,3.0,56,0.00,,---,0.00,VWS V14.00,2013-03-03 14:40:00,
2013-03-03 09:45:00,36.4,21.4,30.00,NW,317,4.0,4.0,54,0.00,,---,0.00,VWS V14.00,2013-03-03 14:45:00,
2013-03-03 09:50:00,36.7,19.8,30.00,West,273,4.0,4.0,50,0.00,,---,0.00,VWS V14.00,2013-03-03 14:50:00,
2013-03-03 09:55:00,36.9,20.9,30.00,NNE,24,3.0,4.0,52,0.00,,---,0.00,VWS V14.00,2013-03-03 14:55:00,
2013-03-03 10:00:00,37.2,19.8,30.00,North,350,4.0,4.0,49,0.00,,---,0.00,VWS V14.00,2013-03-03 15:00:00,
2013-03-03 10:05:00,37.5,20.6,30.00,WNW,282,2.0,2.0,50,0.00,,---,0.00,VWS V14.00,2013-03-03 15:05:00,
2013-03-03 10:10:00,37.6,20.7,30.00,North,350,5.0,6.0,50,0.00,,---,0.00,VWS V14.00,2013-03-03 15:10:00,
2013-03-03 10:15:00,37.9,20.9,30.00,North,355,6.0,6.0,50,0.00,,---,0.00,VWS V14.00,2013-03-03 15:15:00,
2013-03-03 10:20:00,38.2,21.7,30.00,NE,54,0.0,0.0,51,0.00,,---,0.00,VWS V14.00,2013-03-03 15:20:00,
2013-03-03 10:25:00,38.3,20.8,30.00,NNW,331,5.0,5.0,49,0.00,,---,0.00,VWS V14.00,2013-03-03 15:25:00,
2013-03-03 10:31:00,38.2,20.7,30.00,NW,315,5.0,7.0,49,0.00,,---,0.00,VWS V14.00,2013-03-03 15:31:00,
2013-03-03 10:36:00,38.2,19.8,30.00,NE,46,1.0,2.0,47,0.00,,---,0.00,VWS V14.00,2013-03-03 15:36:00,
2013-03-03 10:41:00,38.6,21.1,30.00,ENE,60,2.0,5.0,49,0.00,,---,0.00,VWS V14.00,2013-03-03 15:41:00,
2013-03-03 10:46:00,38.7,20.7,30.00,WSW,252,0.0,3.0,48,0.00,,---,0.00,VWS V14.00,2013-03-03 15:46:00,
2013-03-03 10:51:00,39.0,21.5,30.00,NE,49,0.0,4.0,49,0.00,,---,0.00,VWS V14.00,2013-03-03 15:51:00,
2013-03-03 10:56:00,39.7,21.1,30.00,SE,134,0.0,4.0,47,0.00,,---,0.00,VWS V14.00,2013-03-03 15:56:00,
2013-03-03 11:01:00,40.2,22.1,29.99,NW,307,6.0,8.0,48,0.00,,---,0.00,VWS V14.00,2013-03-03 16:01:00,
2013-03-03 11:06:00,40.3,20.7,29.99,WSW,246,5.0,6.0,45,0.00,,---,0.00,VWS V14.00,2013-03-03 16:06:00,
2013-03-03 11:12:00,40.2,20.0,29.99,WNW,290,0.0,2.0,44,0.00,,---,0.00,VWS V14.00,2013-03-03 16:12:00,
2013-03-03 11:17:00,40.1,20.0,29.99,WSW,250,4.0,4.0,44,0.00,,---,0.00,VWS V14.00,2013-03-03 16:17:00,
2013-03-03 11:22:00,40.4,20.8,29.99,NNE,22,0.0,1.0,45,0.00,,---,0.00,VWS V14.00,2013-03-03 16:22:00,
2013-03-03 11:27:00,40.6,20.4,29.99,NE,36,0.0,0.0,44,0.00,,---,0.00,VWS V14.00,2013-03-03 16:27:00,
2013-03-03 11:31:00,40.7,21.0,29.99,ESE,119,0.0,0.0,45,0.00,,---,0.00,VWS V14.00,2013-03-03 16:31:00,
2013-03-03 11:37:00,41.0,21.3,29.99,NNW,337,5.0,5.0,45,0.00,,---,0.00,VWS V14.00,2013-03-03 16:37:00,
2013-03-03 11:41:00,41.7,22.5,29.99,NE,49,0.0,3.0,46,0.00,,---,0.00,VWS V14.00,2013-03-03 16:41:00,
2013-03-03 11:47:00,42.1,22.3,29.99,NW,306,2.0,3.0,45,0.00,,---,0.00,VWS V14.00,2013-03-03 16:47:00,
2013-03-03 11:52:00,42.0,22.2,29.98,SSE,152,4.0,4.0,45,0.00,,---,0.00,VWS V14.00,2013-03-03 16:52:00,
2013-03-03 11:57:00,42.0,20.0,29.98,NNW,341,5.0,5.0,41,0.00,,---,0.00,VWS V14.00,2013-03-03 16:57:00,
2013-03-03 12:02:00,42.0,22.2,29.98,ENE,77,2.0,3.0,45,0.00,,---,0.00,VWS V14.00,2013-03-03 17:02:00,
2013-03-03 12:07:00,42.6,21.7,29.99,NNE,17,4.0,6.0,43,0.00,,---,0.00,VWS V14.00,2013-03-03 17:07:00,
2013-03-03 12:12:00,42.4,21.0,29.98,NNW,328,0.0,3.0,42,0.00,,---,0.00,VWS V14.00,2013-03-03 17:12:00,
2013-03-03 12:17:00,42.6,21.7,29.98,NNE,22,3.0,6.0,43,0.00,,---,0.00,VWS V14.00,2013-03-03 17:17:00,
2013-03-03 12:22:00,42.9,23.0,29.98,North,355,5.0,9.0,45,0.00,,---,0.00,VWS V14.00,2013-03-03 17:22:00,
2013-03-03 12:27:00,42.7,19.5,29.98,NW,305,2.0,2.0,39,0.00,,---,0.00,VWS V14.00,2013-03-03 17:27:00,
2013-03-03 12:32:00,42.6,21.1,29.97,West,262,1.0,2.0,42,0.00,,---,0.00,VWS V14.00,2013-03-03 17:32:00,
2013-03-03 12:37:00,42.9,21.4,29.97,East,90,0.0,0.0,42,0.00,,---,0.00,VWS V14.00,2013-03-03 17:37:00,
2013-03-03 12:42:00,43.3,21.8,29.97,NW,306,4.0,8.0,42,0.00,,---,0.00,VWS V14.00,2013-03-03 17:42:00,
2013-03-03 12:47:00,43.5,21.4,29.96,WSW,241,2.0,7.0,41,0.00,,---,0.00,VWS V14.00,2013-03-03 17:47:00,
2013-03-03 12:52:00,43.8,22.2,29.96,West,262,6.0,7.0,42,0.00,,---,0.00,VWS V14.00,2013-03-03 17:52:00,
2013-03-03 12:57:00,44.0,21.8,29.96,WSW,237,8.0,8.0,41,0.00,,---,0.00,VWS V14.00,2013-03-03 17:57:00,
2013-03-03 13:02:00,44.4,21.0,29.96,NNW,333,7.0,8.0,39,0.00,,---,0.00,VWS V14.00,2013-03-03 18:02:00,
2013-03-03 13:07:00,44.3,20.9,29.95,NNE,29,3.0,4.0,39,0.00,,---,0.00,VWS V14.00,2013-03-03 18:07:00,
2013-03-03 13:12:00,44.5,22.9,29.95,NNE,30,0.0,5.0,42,0.00,,---,0.00,VWS V14.00,2013-03-03 18:12:00,
2013-03-03 13:17:00,44.9,22.1,29.95,SSE,149,0.0,0.0,40,0.00,,---,0.00,VWS V14.00,2013-03-03 18:17:00,
2013-03-03 13:22:00,44.7,20.0,29.95,NNE,14,0.0,0.0,37,0.00,,---,0.00,VWS V14.00,2013-03-03 18:22:00,
2013-03-03 13:27:00,45.1,23.4,29.95,ENE,62,3.0,3.0,42,0.00,,---,0.00,VWS V14.00,2013-03-03 18:27:00,
2013-03-03 13:32:00,45.4,21.3,29.95,WSW,251,5.0,6.0,38,0.00,,---,0.00,VWS V14.00,2013-03-03 18:32:00,
2013-03-03 13:37:00,45.4,22.5,29.94,NNW,341,4.0,4.0,40,0.00,,---,0.00,VWS V14.00,2013-03-03 18:37:00,
2013-03-03 13:42:00,44.8,20.1,29.94,West,265,1.0,2.0,37,0.00,,---,0.00,VWS V14.00,2013-03-03 18:42:00,
2013-03-03 13:47:00,44.6,21.2,29.94,SSW,211,0.0,2.0,39,0.00,,---,0.00,VWS V14.00,2013-03-03 18:47:00,
2013-03-03 13:52:00,45.2,21.1,29.94,WSW,242,6.0,9.0,38,0.00,,---,0.00,VWS V14.00,2013-03-03 18:52:00,
2013-03-03 13:57:00,45.6,23.9,29.94,South,182,2.0,4.0,42,0.00,,---,0.00,VWS V14.00,2013-03-03 18:57:00,
2013-03-03 14:02:00,45.9,22.4,29.94,West,262,6.0,7.0,39,0.00,,---,0.00,VWS V14.00,2013-03-03 19:02:00,
2013-03-03 14:07:00,46.2,21.4,29.93,NE,48,2.0,6.0,37,0.00,,---,0.00,VWS V14.00,2013-03-03 19:07:00,
2013-03-03 14:12:00,46.7,21.8,29.93,West,264,7.0,7.0,37,0.00,,---,0.00,VWS V14.00,2013-03-03 19:12:00,
2013-03-03 14:17:00,46.4,20.2,29.93,NNW,346,2.0,2.0,35,0.00,,---,0.00,VWS V14.00,2013-03-03 19:17:00,
2013-03-03 14:22:00,46.6,23.0,29.93,West,259,7.0,10.0,39,0.00,,---,0.00,VWS V14.00,2013-03-03 19:22:00,
2013-03-03 14:27:00,46.5,22.3,29.93,SSW,211,5.0,5.0,38,0.00,,---,0.00,VWS V14.00,2013-03-03 19:27:00,
2013-03-03 14:32:00,46.6,19.8,29.92,NNW,338,2.0,6.0,34,0.00,,---,0.00,VWS V14.00,2013-03-03 19:32:00,
2013-03-03 14:37:00,46.4,21.6,29.92,NW,318,3.0,6.0,37,0.00,,---,0.00,VWS V14.00,2013-03-03 19:37:00,
2013-03-03 14:42:00,46.3,22.1,29.93,West,267,2.0,4.0,38,0.00,,---,0.00,VWS V14.00,2013-03-03 19:42:00,
2013-03-03 14:47:00,46.1,20.0,29.92,SW,215,4.0,4.0,35,0.00,,---,0.00,VWS V14.00,2013-03-03 19:47:00,
2013-03-03 14:52:00,46.2,22.0,29.92,West,260,5.0,7.0,38,0.00,,---,0.00,VWS V14.00,2013-03-03 19:52:00,
2013-03-03 14:57:00,46.7,22.5,29.92,South,171,6.0,10.0,38,0.00,,---,0.00,VWS V14.00,2013-03-03 19:57:00,
2013-03-03 15:02:00,46.7,21.8,29.92,SW,215,4.0,6.0,37,0.00,,---,0.00,VWS V14.00,2013-03-03 20:02:00,
2013-03-03 15:07:00,46.7,21.8,29.92,West,259,3.0,6.0,37,0.00,,---,0.00,VWS V14.00,2013-03-03 20:07:00,
2013-03-03 15:12:00,46.9,20.7,29.92,NNW,334,0.0,3.0,35,0.00,,---,0.00,VWS V14.00,2013-03-03 20:12:00,
2013-03-03 15:17:00,47.0,22.1,29.92,WSW,248,4.0,5.0,37,0.00,,---,0.00,VWS V14.00,2013-03-03 20:17:00,
2013-03-03 15:22:00,47.3,21.7,29.92,SW,234,0.0,1.0,36,0.00,,---,0.00,VWS V14.00,2013-03-03 20:22:00,
2013-03-03 15:27:00,47.3,21.7,29.92,West,263,1.0,3.0,36,0.00,,---,0.00,VWS V14.00,2013-03-03 20:27:00,
2013-03-03 15:32:00,47.2,22.9,29.92,NNW,343,6.0,6.0,38,0.00,,---,0.00,VWS V14.00,2013-03-03 20:32:00,
2013-03-03 15:37:00,47.2,21.6,29.92,North,5,3.0,3.0,36,0.00,,---,0.00,VWS V14.00,2013-03-03 20:37:00,
2013-03-03 15:42:00,47.2,21.6,29.92,NE,36,0.0,1.0,36,0.00,,---,0.00,VWS V14.00,2013-03-03 20:42:00,
2013-03-03 15:47:00,47.1,22.8,29.92,NNE,30,5.0,6.0,38,0.00,,---,0.00,VWS V14.00,2013-03-03 20:47:00,
2013-03-03 15:52:00,47.2,22.3,29.92,NNE,29,2.0,7.0,37,0.00,,---,0.00,VWS V14.00,2013-03-03 20:52:00,
2013-03-03 15:57:00,47.1,20.9,29.92,ENE,67,0.0,0.0,35,0.00,,---,0.00,VWS V14.00,2013-03-03 20:57:00,
2013-03-03 16:02:00,46.9,21.4,29.92,ENE,57,4.0,4.0,36,0.00,,---,0.00,VWS V14.00,2013-03-03 21:02:00,
2013-03-03 16:07:00,46.6,21.7,29.92,NNE,26,4.0,4.0,37,0.00,,---,0.00,VWS V14.00,2013-03-03 21:07:00,
2013-03-03 16:12:00,46.4,20.9,29.92,NNW,337,0.0,0.0,36,0.00,,---,0.00,VWS V14.00,2013-03-03 21:12:00,
2013-03-03 16:17:00,46.0,21.2,29.92,North,9,2.0,5.0,37,0.00,,---,0.00,VWS V14.00,2013-03-03 21:17:00,
2013-03-03 16:22:00,45.9,23.0,29.92,NNE,13,3.0,3.0,40,0.00,,---,0.00,VWS V14.00,2013-03-03 21:22:00,
2013-03-03 16:27:00,45.8,22.3,29.93,NNW,346,0.0,3.0,39,0.00,,---,0.00,VWS V14.00,2013-03-03 21:27:00,
2013-03-03 16:32:00,45.6,22.7,29.93,NNW,348,5.0,7.0,40,0.00,,---,0.00,VWS V14.00,2013-03-03 21:32:00,
2013-03-03 16:37:00,45.3,22.4,29.93,NNW,342,3.0,4.0,40,0.00,,---,0.00,VWS V14.00,2013-03-03 21:37:00,
2013-03-03 16:42:00,45.1,21.6,29.93,NNW,348,0.0,0.0,39,0.00,,---,0.00,VWS V14.00,2013-03-03 21:42:00,
2013-03-03 16:47:00,45.0,22.7,29.93,NE,55,5.0,6.0,41,0.00,,---,0.00,VWS V14.00,2013-03-03 21:47:00,
2013-03-03 16:52:00,44.8,21.4,29.93,East,88,1.0,2.0,39,0.00,,---,0.00,VWS V14.00,2013-03-03 21:52:00,
2013-03-03 16:57:00,44.6,21.8,29.93,NNW,336,2.0,6.0,40,0.00,,---,0.00,VWS V14.00,2013-03-03 21:57:00,
2013-03-03 17:02:00,44.4,21.6,29.93,NE,50,2.0,6.0,40,0.00,,---,0.00,VWS V14.00,2013-03-03 22:02:00,
2013-03-03 17:07:00,44.1,21.9,29.92,NNE,27,0.0,2.0,41,0.00,,---,0.00,VWS V14.00,2013-03-03 22:07:00,
2013-03-03 17:12:00,43.8,22.2,29.93,NNE,30,1.0,2.0,42,0.00,,---,0.00,VWS V14.00,2013-03-03 22:12:00,
2013-03-03 17:17:00,43.6,22.0,29.93,NNE,12,0.0,5.0,42,0.00,,---,0.00,VWS V14.00,2013-03-03 22:17:00,
2013-03-03 17:22:00,43.3,21.8,29.93,NNE,21,3.0,5.0,42,0.00,,---,0.00,VWS V14.00,2013-03-03 22:22:00,
2013-03-03 17:27:00,43.0,22.0,29.93,North,5,1.0,2.0,43,0.00,,---,0.00,VWS V14.00,2013-03-03 22:27:00,
2013-03-03 17:32:00,42.7,21.2,29.94,NNE,15,3.0,4.0,42,0.00,,---,0.00,VWS V14.00,2013-03-03 22:32:00,
2013-03-03 17:37:00,42.4,21.0,29.94,NNE,24,4.0,6.0,42,0.00,,---,0.00,VWS V14.00,2013-03-03 22:37:00,
2013-03-03 17:42:00,42.2,20.8,29.94,North,350,6.0,7.0,42,0.00,,---,0.00,VWS V14.00,2013-03-03 22:42:00,
2013-03-03 17:47:00,42.0,21.7,29.94,North,349,4.0,7.0,44,0.00,,---,0.00,VWS V14.00,2013-03-03 22:47:00,
2013-03-03 17:52:00,41.7,21.4,29.94,NE,53,1.0,5.0,44,0.00,,---,0.00,VWS V14.00,2013-03-03 22:52:00,
2013-03-03 17:57:00,41.4,21.1,29.95,North,11,1.0,7.0,44,0.00,,---,0.00,VWS V14.00,2013-03-03 22:57:00,
2013-03-03 18:02:00,41.0,20.2,29.95,NNE,16,2.0,5.0,43,0.00,,---,0.00,VWS V14.00,2013-03-03 23:02:00,
2013-03-03 18:07:00,40.6,20.4,29.95,NNE,15,0.0,4.0,44,0.00,,---,0.00,VWS V14.00,2013-03-03 23:07:00,
2013-03-03 18:12:00,40.2,21.1,29.96,North,10,4.0,6.0,46,0.00,,---,0.00,VWS V14.00,2013-03-03 23:12:00,
2013-03-03 18:17:00,39.8,20.7,29.96,North,5,1.0,1.0,46,0.00,,---,0.00,VWS V14.00,2013-03-03 23:17:00,
2013-03-03 18:22:00,39.5,21.0,29.96,NNE,13,0.0,1.0,47,0.00,,---,0.00,VWS V14.00,2013-03-03 23:22:00,
2013-03-03 18:27:00,39.2,20.2,29.96,North,5,3.0,5.0,46,0.00,,---,0.00,VWS V14.00,2013-03-03 23:27:00,
2013-03-03 18:32:00,38.8,19.8,29.96,North,349,0.0,8.0,46,0.00,,---,0.00,VWS V14.00,2013-03-03 23:32:00,
2013-03-03 18:37:00,38.4,20.4,29.96,NNE,15,0.0,1.0,48,0.00,,---,0.00,VWS V14.00,2013-03-03 23:37:00,
2013-03-03 18:42:00,38.1,20.2,29.97,NNE,33,0.0,3.0,48,0.00,,---,0.00,VWS V14.00,2013-03-03 23:42:00,
2013-03-03 18:47:00,37.7,19.8,29.97,NNW,343,0.0,7.0,48,0.00,,---,0.00,VWS V14.00,2013-03-03 23:47:00,
2013-03-03 18:52:00,37.4,19.5,29.97,NNW,342,0.0,3.0,48,0.00,,---,0.00,VWS V14.00,2013-03-03 23:52:00,
2013-03-03 18:57:00,37.1,20.2,29.97,North,360,0.0,8.0,50,0.00,,---,0.00,VWS V14.00,2013-03-03 23:57:00,
2013-03-03 19:02:00,36.9,19.5,29.97,North,355,2.0,4.0,49,0.00,,---,0.00,VWS V14.00,2013-03-04 00:02:00,
2013-03-03 19:07:00,36.6,19.7,29.97,North,355,2.0,4.0,50,0.00,,---,0.00,VWS V14.00,2013-03-04 00:07:00,
2013-03-03 19:12:00,36.3,19.5,29.98,North,355,9.0,9.0,50,0.00,,---,0.00,VWS V14.00,2013-03-04 00:12:00,
2013-03-03 19:17:00,36.1,19.3,29.98,North,355,3.0,3.0,50,0.00,,---,0.00,VWS V14.00,2013-03-04 00:17:00,
2013-03-03 19:22:00,35.9,19.5,29.98,West,277,3.0,9.0,51,0.00,,---,0.00,VWS V14.00,2013-03-04 00:22:00,
2013-03-03 19:27:00,35.8,19.5,29.99,NNW,347,0.0,0.0,51,0.00,,---,0.00,VWS V14.00,2013-03-04 00:27:00,
2013-03-03 19:32:00,35.7,19.4,29.99,NNW,346,0.0,1.0,51,0.00,,---,0.00,VWS V14.00,2013-03-04 00:32:00,
2013-03-03 19:37:00,35.4,19.1,29.99,NE,38,2.0,7.0,51,0.00,,---,0.00,VWS V14.00,2013-03-04 00:37:00,
2013-03-03 19:42:00,35.3,19.5,29.99,North,350,3.0,6.0,52,0.00,,---,0.00,VWS V14.00,2013-03-04 00:42:00,
2013-03-03 19:47:00,35.1,19.7,30.00,North,5,7.0,7.0,53,0.00,,---,0.00,VWS V14.00,2013-03-04 00:47:00,
2013-03-03 19:52:00,35.0,19.2,30.00,NNE,23,0.0,1.0,52,0.00,,---,0.00,VWS V14.00,2013-03-04 00:52:00,
2013-03-03 19:57:00,34.8,19.4,30.00,North,355,0.0,8.0,53,0.00,,---,0.00,VWS V14.00,2013-03-04 00:57:00,
2013-03-03 20:02:00,34.6,19.2,30.00,ENE,66,0.0,4.0,53,0.00,,---,0.00,VWS V14.00,2013-03-04 01:02:00,
2013-03-03 20:07:00,34.5,19.6,30.00,NNE,31,2.0,4.0,54,0.00,,---,0.00,VWS V14.00,2013-03-04 01:07:00,
2013-03-03 20:12:00,34.3,19.8,30.00,NNW,344,0.0,4.0,55,0.00,,---,0.00,VWS V14.00,2013-03-04 01:12:00,
2013-03-03 20:17:00,34.1,19.2,30.00,NNW,346,0.0,0.0,54,0.00,,---,0.00,VWS V14.00,2013-03-04 01:17:00,
2013-03-03 20:22:00,33.9,19.5,30.00,NNE,13,1.0,2.0,55,0.00,,---,0.00,VWS V14.00,2013-03-04 01:22:00,
2013-03-03 20:27:00,33.7,19.3,30.00,NNE,31,0.0,0.0,55,0.00,,---,0.00,VWS V14.00,2013-03-04 01:27:00,
2013-03-03 20:32:00,33.5,19.5,30.00,NNE,14,0.0,0.0,56,0.00,,---,0.00,VWS V14.00,2013-03-04 01:32:00,
2013-03-03 20:37:00,33.3,19.3,30.01,NNE,13,0.0,0.0,56,0.00,,---,0.00,VWS V14.00,2013-03-04 01:37:00,
2013-03-03 20:42:00,33.1,19.1,30.01,NNE,17,0.0,0.0,56,0.00,,---,0.00,VWS V14.00,2013-03-04 01:42:00,
2013-03-03 20:47:00,33.0,19.4,30.01,North,360,3.0,3.0,57,0.00,,---,0.00,VWS V14.00,2013-03-04 01:47:00,
2013-03-03 20:52:00,32.9,19.8,30.01,North,5,0.0,3.0,58,0.00,,---,0.00,VWS V14.00,2013-03-04 01:52:00,
2013-03-03 20:57:00,32.8,18.8,30.01,North,355,0.0,0.0,56,0.00,,---,0.00,VWS V14.00,2013-03-04 01:57:00,
2013-03-03 21:02:00,32.7,19.6,30.01,North,9,0.0,1.0,58,0.00,,---,0.00,VWS V14.00,2013-03-04 02:02:00,
2013-03-03 21:07:00,32.5,19.0,30.02,North,355,0.0,2.0,57,0.00,,---,0.00,VWS V14.00,2013-03-04 02:07:00,
2013-03-03 21:12:00,32.4,19.3,30.02,North,355,4.0,4.0,58,0.00,,---,0.00,VWS V14.00,2013-03-04 02:12:00,
2013-03-03 21:17:00,32.3,19.2,30.02,NNW,339,0.0,0.0,58,0.00,,---,0.00,VWS V14.00,2013-03-04 02:17:00,
2013-03-03 21:22:00,32.1,19.0,30.03,North,355,0.0,6.0,58,0.00,,---,0.00,VWS V14.00,2013-03-04 02:22:00,
2013-03-03 21:27:00,32.1,19.0,30.03,North,355,0.0,1.0,58,0.00,,---,0.00,VWS V14.00,2013-03-04 02:27:00,
2013-03-03 21:32:00,32.0,20.5,30.03,North,355,0.0,1.0,62,0.00,,---,0.00,VWS V14.00,2013-03-04 02:32:00,
2013-03-03 21:37:00,31.9,19.6,30.03,North,355,2.0,2.0,60,0.00,,---,0.00,VWS V14.00,2013-03-04 02:37:00,
2013-03-03 21:42:00,31.7,19.0,30.03,NNE,32,0.0,1.0,59,0.00,,---,0.00,VWS V14.00,2013-03-04 02:42:00,
2013-03-03 21:47:00,31.6,18.9,30.03,NNW,340,2.0,2.0,59,0.00,,---,0.00,VWS V14.00,2013-03-04 02:47:00,
2013-03-03 21:52:00,31.5,18.8,30.03,NNW,343,0.0,0.0,59,0.00,,---,0.00,VWS V14.00,2013-03-04 02:52:00,
2013-03-03 21:57:00,31.4,18.7,30.03,NNW,343,0.0,2.0,59,0.00,,---,0.00,VWS V14.00,2013-03-04 02:57:00,
2013-03-03 22:02:00,31.4,18.7,30.03,NNW,331,0.0,1.0,59,0.00,,---,0.00,VWS V14.00,2013-03-04 03:02:00,
2013-03-03 22:07:00,31.3,18.6,30.03,NNW,333,0.0,0.0,59,0.00,,---,0.00,VWS V14.00,2013-03-04 03:07:00,
2013-03-03 22:12:00,31.2,18.5,30.03,North,360,1.0,1.0,59,0.00,,---,0.00,VWS V14.00,2013-03-04 03:12:00,
2013-03-03 22:17:00,31.2,18.5,30.03,North,9,0.0,1.0,59,0.00,,---,0.00,VWS V14.00,2013-03-04 03:17:00,
2013-03-03 22:22:00,31.1,18.5,30.03,NNW,348,2.0,2.0,59,0.00,,---,0.00,VWS V14.00,2013-03-04 03:22:00,
2013-03-03 22:27:00,31.1,18.5,30.03,NE,38,0.0,0.0,59,0.00,,---,0.00,VWS V14.00,2013-03-04 03:27:00,
2013-03-03 22:32:00,31.1,18.1,30.04,WNW,291,0.0,0.0,58,0.00,,---,0.00,VWS V14.00,2013-03-04 03:32:00,
2013-03-03 22:37:00,31.1,18.1,30.04,NNW,337,0.0,2.0,58,0.00,,---,0.00,VWS V14.00,2013-03-04 03:37:00,
2013-03-03 22:42:00,31.0,18.0,30.04,NNW,337,7.0,7.0,58,0.00,,---,0.00,VWS V14.00,2013-03-04 03:42:00,
2013-03-03 22:47:00,31.0,18.4,30.04,NNW,344,0.0,2.0,59,0.00,,---,0.00,VWS V14.00,2013-03-04 03:47:00,
2013-03-03 22:52:00,31.0,18.0,30.04,NNW,337,3.0,5.0,58,0.00,,---,0.00,VWS V14.00,2013-03-04 03:52:00,
2013-03-03 22:57:00,31.0,18.0,30.04,North,11,1.0,6.0,58,0.00,,---,0.00,VWS V14.00,2013-03-04 03:57:00,
2013-03-03 23:02:00,31.0,18.0,30.04,NNE,21,1.0,6.0,58,0.00,,---,0.00,VWS V14.00,2013-03-04 04:02:00,
2013-03-03 23:07:00,31.1,18.1,30.04,North,355,0.0,4.0,58,0.00,,---,0.00,VWS V14.00,2013-03-04 04:07:00,
2013-03-03 23:12:00,31.1,18.5,30.03,North,355,0.0,1.0,59,0.00,,---,0.00,VWS V14.00,2013-03-04 04:12:00,
2013-03-03 23:17:00,31.0,18.0,30.04,North,355,0.0,4.0,58,0.00,,---,0.00,VWS V14.00,2013-03-04 04:17:00,
2013-03-03 23:22:00,30.9,17.9,30.04,NNW,344,0.0,0.0,58,0.00,,---,0.00,VWS V14.00,2013-03-04 04:22:00,
2013-03-03 23:27:00,30.9,17.9,30.04,North,5,2.0,9.0,58,0.00,,---,0.00,VWS V14.00,2013-03-04 04:27:00,
2013-03-03 23:32:00,30.8,17.8,30.04,North,355,0.0,3.0,58,0.00,,---,0.00,VWS V14.00,2013-03-04 04:32:00,
2013-03-03 23:37:00,30.7,17.7,30.04,North,360,0.0,1.0,58,0.00,,---,0.00,VWS V14.00,2013-03-04 04:37:00,
2013-03-03 23:42:00,30.6,18.0,30.04,NE,54,0.0,2.0,59,0.00,,---,0.00,VWS V14.00,2013-03-04 04:42:00,
2013-03-03 23:47:00,30.6,17.6,30.04,NE,54,0.0,0.0,58,0.00,,---,0.00,VWS V14.00,2013-03-04 04:47:00,
2013-03-03 23:52:00,30.5,17.9,30.04,NE,48,2.0,2.0,59,0.00,,---,0.00,VWS V14.00,2013-03-04 04:52:00,
2013-03-03 23:57:00,30.5,17.9,30.05,ENE,63,0.0,0.0,59,0.00,,---,0.00,VWS V14.00,2013-03-04 04:57:00,